Home > Weather > Jalalabad > Past weeks

Flag for Afghanistan Weather for the Past 2 Weeks in Jalalabad, Afghanistan

Now
72 °F

Partly cloudy.


Feels Like: 74 °F
Forecast: 62 / 95 °F
Wind: 7 mph from Southeast

Location: Peshawar Airport

Current Time: May 5, 2016 at 12:24:15 AM

Latest Report: May 4, 2016 at 11:30 PM


Visibility: 2 mi

Pressure: 29.80 "Hg (27.89 "Hg at 572m altitude)

Humidity: 73%

Dew Point: 63 °F

Location of JalalabadLocation

Historic Weather in Jalalabad — Graph

°F

Jalalabad Temperature Yesterday

Maximum temperature yesterday: 77 °F (at 12:00 AM)
Minimum temperature yesterday: 72 °F (at 9:30 AM)
Average temperature yesterday: 74 °F

High & Low Weather Summary for the Past Weeks

 TemperatureHumidityPressure
High102 °F (May 1, 2:30 PM)83% (May 4, 10:30 AM)29.98 "Hg (May 4, 10:30 AM)
Low61 °F (Apr 22, 4:30 AM)24% (Apr 23, 3:00 PM)29.59 "Hg (May 2, 3:30 PM)
Average80 °F44%29.78 "Hg
* Reported Apr 19 10:30 PM — May 4 10:30 PM, Jalalabad, Weather by CustomWeather, © 2016

Note: Actual official high and low records may vary slightly from our data, if they occured in-between our weather recording intervals... More about our weather records

Advertising

Jalalabad Weather History for the Previous 24 Hours

Scroll right to see more
 ConditionsComfort  
Time TempWeatherWind HumidityBarometerVisibility
10:30 PM
Wed, May 4
72 °FPartly cloudy.5 mph73%29.80 "Hg2 mi
10:00 PM73 °FPartly cloudy.5 mph69%29.83 "Hg2 mi
9:30 PM73 °FPartly cloudy.5 mph69%29.83 "Hg2 mi
9:00 PM73 °FPartly cloudy.7 mph69%29.80 "Hg2 mi
8:30 PM73 °FPartly cloudy.7 mph69%29.80 "Hg2 mi
8:00 PM73 °FPartly cloudy.5 mph69%29.80 "Hg2 mi
7:00 PM73 °FPartly cloudy.7 mph69%29.80 "Hg2 mi
6:30 PM73 °FPartly cloudy.7 mph69%29.80 "Hg2 mi
6:00 PM75 °FBroken clouds.5 mph69%29.80 "Hg2 mi
5:30 PM75 °FBroken clouds.5 mph69%29.80 "Hg2 mi
5:00 PM77 °FBroken clouds.5 mph65%29.80 "Hg2 mi
4:00 PM75 °FBroken clouds.7 mph69%29.83 "Hg2 mi
3:30 PM75 °FBroken clouds.7 mph69%29.83 "Hg2 mi
3:00 PM75 °FBroken clouds.7 mph74%29.83 "Hg2 mi
2:30 PM75 °FBroken clouds.7 mph74%29.83 "Hg2 mi
2:00 PM73 °FBroken clouds.9 mph74%29.86 "Hg2 mi
1:30 PM73 °FBroken clouds.9 mph74%29.86 "Hg2 mi
12:30 PM73 °FBroken clouds.12 mph74%29.86 "Hg2 mi
12:00 PM72 °FFog.12 mph83%29.89 "Hg2 mi
11:30 AM72 °FFog.12 mph83%29.89 "Hg2 mi
11:00 AM72 °FFog.12 mph83%29.89 "Hg2 mi
10:30 AM72 °FRain. Broken clouds.12 mph83%29.89 "Hg2 mi
9:30 AM72 °FRain. Broken clouds.12 mph73%29.86 "Hg2 mi
9:00 AM73 °FRain. Broken clouds.9 mph69%29.86 "Hg2 mi
8:30 AM73 °FRain. Broken clouds.9 mph69%29.86 "Hg2 mi
8:00 AM73 °FRain. Broken clouds.5 mph69%29.83 "Hg2 mi
7:30 AM73 °FRain. Broken clouds.5 mph69%29.83 "Hg2 mi
6:30 AM75 °FDrizzle. Broken clouds.5 mph54%29.80 "Hg2 mi
6:00 AM73 °FBroken clouds.7 mph57%29.80 "Hg2 mi
5:30 AM73 °FBroken clouds.7 mph57%29.80 "Hg2 mi
5:00 AM73 °FRain. Broken clouds.7 mph57%29.80 "Hg2 mi
3:30 AM73 °FPartly cloudy.9 mph57%29.77 "Hg2 mi
2:30 AM73 °FPartly cloudy.9 mph57%29.77 "Hg2 mi
2:00 AM75 °FPartly cloudy.12 mph54%29.77 "Hg2 mi
1:30 AM75 °FPartly cloudy.12 mph54%29.77 "Hg2 mi
1:00 AM75 °FThundershowers. Partly cloudy.9 mph54%29.77 "Hg2 mi
12:30 AM75 °FThundershowers. Partly cloudy.9 mph54%29.77 "Hg2 mi
12:00 AM77 °FThundershowers. Partly cloudy.7 mph51%29.80 "Hg2 mi
Weather by CustomWeather, © 2016

See weather overviewHow to use our weather pages